Weather History for Pinedale, WY

Change the Weather History Date:

Wednesday, February 13, 2013

  Actual Average (KBPI) Record (KBPI)
Temperature  
Mean Temperature 24 °F 14 °F  
Max Temperature 32 °F 28 °F 49 °F (1996)
Min Temperature 15 °F 1 °F -19 °F (2004)
Degree Days  
Heating Degree Days 42 51  
Month to date heating degree days 685  
Since 1 July heating degree days 6798  
Cooling Degree Days 0 0  
Month to date cooling degree days 0  
Year to date cooling degree days 0  
Moisture  
Dew Point 18 °F    
Average Humidity 78    
Maximum Humidity 93    
Minimum Humidity 64    
Precipitation  
Precipitation 0.00 in 0.01 in 0.57 in (1995)
Month to date precipitation 0.15  
Year to date precipitation 0.46  
Sea Level Pressure  
Sea Level Pressure 30.07 in    
Wind  
Wind Speed 14 mph (WNW)    
Max Wind Speed 31 mph    
Max Gust Speed 32 mph    
Visibility 10 miles    
Events      
T = Trace of Precipitation, MM = Missing Value Source: NWS Daily Summary

Daily Weather History Graph

Daily Weather History Graph

Search for Another Location

Airport:

Trip Planner

Search our weather history database for the weather conditions in past years. The results will help you decide how hot, cold, wet, or windy it might be!

Date:

Astronomy

Feb. 13, 2013 Rise Set
Actual Time 7:18 AM MST 5:48 PM MST
Civil Twilight 6:49 AM MST 6:17 PM MST
Nautical Twilight 6:16 AM MST 6:51 PM MST
Astronomical Twilight 5:43 AM MST 7:23 PM MST
Moon 8:43 AM MST (2/13) 10:02 PM MST (2/13)
Length of Visible Light 11h 28m
Length of Day
10h 30m
Waxing Crescent, 14% of the Moon is Illuminated
Feb 13
Waxing Crescent
Feb 17
First Quarter
Feb 25
Full
Mar 4
Last Quarter
Mar 11
New

Hourly Weather History & Observations

Time (MST) Temp. Windchill Dew Point Humidity Pressure Visibility Wind Dir Wind Speed Gust Speed Precip Events Conditions
12:15 AM 21.2 °F 5.6 °F 14.0 °F 74% 30.09 in 10.0 mi WNW 20.7 mph 29.9 mph N/A   Scattered Clouds
12:35 AM 21.2 °F 5.2 °F 14.0 °F 74% 30.09 in 10.0 mi WNW 21.9 mph 26.5 mph N/A   Scattered Clouds
12:55 AM 21.2 °F 6.4 °F 14.0 °F 74% 30.09 in 10.0 mi WNW 18.4 mph 27.6 mph N/A   Clear
1:15 AM 21.2 °F 6.8 °F 14.0 °F 74% 30.09 in 10.0 mi West 17.3 mph 21.9 mph N/A   Scattered Clouds
1:35 AM 21.2 °F 7.3 °F 14.0 °F 74% 30.09 in 10.0 mi WNW 16.1 mph - N/A   Scattered Clouds
1:55 AM 21.2 °F 8.3 °F 14.0 °F 74% 30.09 in 10.0 mi WNW 13.8 mph - N/A   Clear
2:15 AM 23.0 °F 10.6 °F 14.0 °F 68% 30.08 in 10.0 mi WNW 13.8 mph 18.4 mph N/A   Clear
2:35 AM 21.2 °F 10.1 °F 14.0 °F 74% 30.08 in 10.0 mi West 10.4 mph - N/A   Clear
2:55 AM 19.4 °F 5.0 °F 14.0 °F 80% 30.07 in 10.0 mi West 16.1 mph - N/A   Clear
3:15 AM 21.2 °F 7.3 °F 14.0 °F 74% 30.07 in 10.0 mi West 16.1 mph 23.0 mph N/A   Clear
3:35 AM 21.2 °F 9.5 °F 14.0 °F 74% 30.07 in 10.0 mi WSW 11.5 mph 21.9 mph N/A   Scattered Clouds
3:55 AM 21.2 °F 9.5 °F 15.8 °F 80% 30.07 in 10.0 mi West 11.5 mph - N/A   Overcast
4:15 AM 23.0 °F 11.1 °F 17.6 °F 80% 30.07 in 10.0 mi WNW 12.7 mph 23.0 mph N/A   Overcast
4:35 AM 21.2 °F 7.8 °F 17.6 °F 86% 30.08 in 10.0 mi West 15.0 mph - N/A   Overcast
4:55 AM 21.2 °F 7.3 °F 17.6 °F 86% 30.08 in 10.0 mi West 16.1 mph 23.0 mph N/A   Overcast
5:15 AM 21.2 °F 13.6 °F 17.6 °F 86% 30.08 in 10.0 mi WSW 5.8 mph - N/A   Overcast
5:35 AM 19.4 °F 9.5 °F 15.8 °F 86% 30.08 in 10.0 mi West 8.1 mph - N/A   Scattered Clouds
5:55 AM 19.4 °F 7.9 °F 14.0 °F 80% 30.08 in 10.0 mi West 10.4 mph - N/A   Scattered Clouds
6:15 AM 19.4 °F 11.5 °F 14.0 °F 80% 30.08 in 10.0 mi WNW 5.8 mph - N/A   Clear
6:35 AM 17.6 °F 7.3 °F 14.0 °F 86% 30.09 in 10.0 mi NNW 8.1 mph - N/A   Clear
6:55 AM 15.8 °F 10.2 °F 14.0 °F 93% 30.08 in 10.0 mi North 3.5 mph - N/A   Clear
7:15 AM 17.6 °F 12.3 °F 14.0 °F 86% 30.08 in 10.0 mi WSW 3.5 mph - N/A   Clear
7:35 AM 15.8 °F - 14.0 °F 93% 30.09 in 10.0 mi Calm Calm - N/A   Clear
7:55 AM 17.6 °F 10.7 °F 14.0 °F 86% 30.09 in 10.0 mi NNW 4.6 mph - N/A   Clear
8:15 AM 19.4 °F 12.8 °F 14.0 °F 80% 30.09 in 10.0 mi NNW 4.6 mph - N/A   Clear
8:35 AM 19.4 °F - 14.0 °F 80% 30.09 in 10.0 mi Calm Calm - N/A   Clear
8:55 AM 19.4 °F 14.3 °F 14.0 °F 80% 30.09 in 10.0 mi NE 3.5 mph - N/A   Clear
9:15 AM 23.0 °F - 17.6 °F 80% 30.09 in 10.0 mi Calm Calm - N/A   Clear
9:35 AM 23.0 °F 18.4 °F 17.6 °F 80% 30.09 in 10.0 mi WNW 3.5 mph - N/A   Clear
9:55 AM 23.0 °F 17.0 °F 17.6 °F 80% 30.09 in 10.0 mi NNW 4.6 mph - N/A   Clear
10:15 AM 26.6 °F 21.2 °F 17.6 °F 69% 30.10 in 10.0 mi WNW 4.6 mph - N/A   Clear
10:35 AM 26.6 °F 21.2 °F 19.4 °F 74% 30.09 in 10.0 mi WNW 4.6 mph - N/A   Clear
10:55 AM 28.4 °F 18.5 °F 19.4 °F 69% 30.09 in 10.0 mi West 11.5 mph - N/A   Clear
11:15 AM 28.4 °F 18.0 °F 21.2 °F 74% 30.09 in 10.0 mi WNW 12.7 mph - N/A   Clear
11:35 AM 28.4 °F 18.0 °F 21.2 °F 74% 30.09 in 10.0 mi WNW 12.7 mph 20.7 mph N/A   Scattered Clouds
11:55 AM 28.4 °F 19.1 °F 19.4 °F 69% 30.08 in 10.0 mi WNW 10.4 mph - N/A   Scattered Clouds
12:15 PM 28.4 °F 19.1 °F 21.2 °F 74% 30.07 in 10.0 mi NW 10.4 mph - N/A   Scattered Clouds
12:35 PM 30.2 °F 19.8 °F 19.4 °F 64% 30.07 in 10.0 mi WNW 13.8 mph - N/A   Scattered Clouds
12:55 PM 30.2 °F 18.9 °F 19.4 °F 64% 30.06 in 10.0 mi NW 16.1 mph - N/A   Scattered Clouds
1:15 PM 32.0 °F 20.1 °F 21.2 °F 64% 30.05 in 10.0 mi WNW 19.6 mph - N/A   Scattered Clouds
1:35 PM 32.0 °F 18.6 °F 21.2 °F 64% 30.04 in 10.0 mi NW 25.3 mph - N/A   Clear
1:55 PM 30.2 °F 16.5 °F 21.2 °F 69% 30.05 in 10.0 mi NW 24.2 mph 29.9 mph N/A   Scattered Clouds
2:15 PM 30.2 °F 16.5 °F 21.2 °F 69% 30.03 in 10.0 mi WNW 24.2 mph 29.9 mph N/A   Scattered Clouds
2:35 PM 30.2 °F 16.5 °F 21.2 °F 69% 30.04 in 10.0 mi WNW 24.2 mph 32.2 mph N/A   Scattered Clouds
2:55 PM 30.2 °F 16.5 °F 21.2 °F 69% 30.05 in 10.0 mi NW 24.2 mph 32.2 mph N/A   Scattered Clouds
3:15 PM 30.2 °F 17.8 °F 21.2 °F 69% 30.05 in 10.0 mi NW 19.6 mph 29.9 mph N/A   Scattered Clouds
3:35 PM 30.2 °F 16.5 °F 21.2 °F 69% 30.05 in 10.0 mi NW 24.2 mph 29.9 mph N/A   Scattered Clouds
3:55 PM 30.2 °F 17.1 °F 21.2 °F 69% 30.05 in 10.0 mi NW 21.9 mph 29.9 mph N/A   Scattered Clouds
4:15 PM 28.4 °F 13.3 °F 21.2 °F 74% 30.05 in 10.0 mi NW 27.6 mph 32.2 mph N/A   Mostly Cloudy
4:35 PM 28.4 °F 13.8 °F 21.2 °F 74% 30.05 in 10.0 mi NW 25.3 mph - N/A   Mostly Cloudy
4:55 PM 28.4 °F 12.5 °F 19.4 °F 69% 30.05 in 10.0 mi NW 31.1 mph - N/A   Scattered Clouds
5:15 PM 26.6 °F 11.4 °F 19.4 °F 74% 30.05 in 10.0 mi NW 25.3 mph 29.9 mph N/A   Clear
5:35 PM 26.6 °F 12.0 °F 19.4 °F 74% 30.05 in 10.0 mi NW 23.0 mph - N/A   Scattered Clouds
5:55 PM 24.8 °F 11.1 °F 19.4 °F 80% 30.05 in 10.0 mi WNW 18.4 mph 25.3 mph N/A   Scattered Clouds
6:15 PM 23.0 °F 8.0 °F 17.6 °F 80% 30.05 in 10.0 mi WNW 20.7 mph - N/A   Clear
6:35 PM 23.0 °F 8.7 °F 17.6 °F 80% 30.06 in 10.0 mi WNW 18.4 mph - N/A   Clear
6:55 PM 23.0 °F 10.6 °F 19.4 °F 86% 30.07 in 10.0 mi WNW 13.8 mph - N/A   Clear
7:15 PM 23.0 °F 11.7 °F 19.4 °F 86% 30.08 in 10.0 mi WNW 11.5 mph - N/A   Clear
7:35 PM 23.0 °F 15.8 °F 19.4 °F 86% 30.08 in 10.0 mi WNW 5.8 mph - N/A   Scattered Clouds
7:55 PM 23.0 °F 15.8 °F 17.6 °F 80% 30.08 in 10.0 mi NW 5.8 mph - N/A   Scattered Clouds
8:15 PM 21.2 °F 12.6 °F 17.6 °F 86% 30.08 in 10.0 mi NW 6.9 mph - N/A   Clear
8:35 PM 23.0 °F 10.1 °F 19.4 °F 86% 30.08 in 10.0 mi WNW 15.0 mph - N/A   Clear
8:55 PM 23.0 °F 11.7 °F 17.6 °F 80% 30.08 in 10.0 mi WNW 11.5 mph - N/A   Clear
9:15 PM 21.2 °F 8.3 °F 17.6 °F 86% 30.08 in 10.0 mi WNW 13.8 mph - N/A   Scattered Clouds
9:35 PM 23.0 °F 10.1 °F 17.6 °F 80% 30.07 in 10.0 mi NW 15.0 mph - N/A   Mostly Cloudy
9:55 PM 23.0 °F 11.1 °F 19.4 °F 86% 30.07 in 10.0 mi NW 12.7 mph - N/A   Scattered Clouds
10:15 PM 23.0 °F 11.1 °F 19.4 °F 86% 30.07 in 10.0 mi NW 12.7 mph - N/A   Mostly Cloudy
10:35 PM 23.0 °F 12.4 °F 19.4 °F 86% 30.07 in 10.0 mi WNW 10.4 mph - N/A   Overcast
10:55 PM 23.0 °F 11.7 °F 19.4 °F 86% 30.08 in 10.0 mi WNW 11.5 mph - N/A   Overcast
11:15 PM 23.0 °F 13.1 °F 19.4 °F 86% 30.07 in 10.0 mi WNW 9.2 mph - N/A   Overcast
11:35 PM 21.2 °F 10.9 °F 19.4 °F 93% 30.07 in 10.0 mi WNW 9.2 mph - N/A   Mostly Cloudy
11:55 PM 21.2 °F 12.6 °F 17.6 °F 86% 30.07 in 10.0 mi WNW 6.9 mph - N/A   Mostly Cloudy